Regional Weather Roundup
Issued by NWS Charleston, SC

Current Version | Previous Version | Graphics & Text | Print | Product List | Glossary On
Versions: 1 2 3 4 5 6 7 8 9 10 11 12 13 14 15 16 17 18 19 20 21 22 23 24 25 26 27 28 29 30 31 32 33 34 35 36 37 38 39 40 41 42 43 44 45 46 47 48 49 50
000
ASUS42 KCHS 131828
RWRCHS

REGIONAL WEATHER ROUNDUP
NATIONAL WEATHER SERVICE CHARLESTON SC
100 PM EST SAT FEB 13 2016

NOTE: "FAIR" INDICATES FEW OR NO CLOUDS BELOW 12,000 FEET WITH NO
SIGNIFICANT WEATHER AND/OR OBSTRUCTIONS TO VISIBILITY.

NOT ALL STATIONS ARE QUALITY CONTROLLED BY THE NATIONAL
WEATHER SERVICE. USE DATA WITH CAUTION...ESPECIALLY
DEWPOINT OBSERVATIONS.

SCZ027-030-031-034>040-042>050-131900-
...SOUTHEAST SOUTH CAROLINA...

CITY           SKY/WX    TMP DP  RH WIND       PRES   REMARKS
N CHARLESTON   MOSUNNY   49  19  30 NW12G23   30.27S
6HR MIN TEMP:  32; 6HR MAX TEMP:  50;

WATERFRONT PRK   N/A     45  25  45 N9        30.13S
MOUNT PLEASANT FAIR      48  21  34 NW9       30.26F
JOHNS ISLAND   FAIR      50  25  37 VRB7      30.26F
PINOPOLIS        N/A     43  19  39 NW8       30.21F
MONCKS CORNER  FAIR      43  14  31 N6        30.28F
SUMMERVILLE    FAIR      46  23  39 NW9G17    30.28F
BEAUFORT MCAS  SUNNY     50  27  40 NW10      30.28F
6HR MIN TEMP:  40; 6HR MAX TEMP:  51;

BEAUFORT ARPT  FAIR      50  28  43 W8        30.27F HAZE
HILTON HEAD IS SUNNY     46  30  53 N12G21    30.29F
WALTERBORO     CLEAR     50  19  29 NE6       30.28F
ALLENDALE      FAIR      48  21  34 CALM      30.28F

...SOUTHERN MIDLANDS AND PEE DEE...

CITY           SKY/WX    TMP DP  RH WIND       PRES   REMARKS
GEORGETOWN     FAIR      45  19  36 NW10      30.27F
KINGSTREE      FAIR      43  19  39 N6        30.28F
ORANGEBURG     SUNNY     46  14  27 VRB6      30.28F
6HR MIN TEMP:  35; 6HR MAX TEMP:  47;

BARNWELL       FAIR      48  21  34 N12       30.28F
AIKEN          FAIR      43  18  36 N9        30.31F
MANNING        FAIR      45  14  29 NW12      30.27F
COLUMBIA       SUNNY     46   7  20 NW12      30.29F
6HR MIN TEMP:  34; 6HR MAX TEMP:  46;

SUMTER         SUNNY     45  13  27 NW12      30.26F
6HR MIN TEMP:  31; 6HR MAX TEMP:  45;

FLORENCE       SUNNY     42  14  32 NW12G22   30.29F
6HR MIN TEMP:  24; 6HR MAX TEMP:  42;

MYRTLE BEACH   SUNNY     45  16  31 N14G25    30.29F
N MYRTLE BEACH SUNNY     43  15  32 N12G21    30.27S
6HR MIN TEMP:  31; 6HR MAX TEMP:  43;


$$

GAZ063-065-086>088-099>101-113>116-118-119-134>141-150-131900-
...SOUTHEAST GEORGIA...

CITY           SKY/WX    TMP DP  RH WIND       PRES   REMARKS
SAVANNAH ARPT  SUNNY     51  25  36 VRB6      30.28F
6HR MIN TEMP:  38; 6HR MAX TEMP:  51;

HUNTER AAF     SUNNY     52  27  38 NW10      30.25F
6HR MIN TEMP:  37; 6HR MAX TEMP:  52;

FORT STEWART   SUNNY     52  22  31 N14       30.26F
6HR MIN TEMP:  42; 6HR MAX TEMP:  52;

STATESBORO     SUNNY     53  11  18 NW10      30.28F
SYLVANIA       CLEAR     50  28  43 NW6       30.29F
CLAXTON        FAIR      53  27  36 W10       30.29F

...CSRA...CENTRAL AND FAR SOUTHEAST GEORGIA...

CITY           SKY/WX    TMP DP  RH WIND       PRES   REMARKS
THOMSON        SUNNY     49  17  27 NW9G17    30.33F
AUGUSTA-BUSH   SUNNY     47  13  25 NW8G18    30.30F
6HR MIN TEMP:  35; 6HR MAX TEMP:  48;

AUGUSTA-DANIEL SUNNY     47  13  25 NW13      30.30F
SWAINSBORO     FAIR      48  18  29 W5G17     30.29F
VIDALIA        SUNNY     52  19  28 W6G21     30.30F
EASTMAN        FAIR      50  12  21 NW6G16    30.34F
HAZLEHURST     FAIR      52  14  22 N12G18    30.29F
ALMA           SUNNY     52  19  27 NW8G20    30.30F
6HR MIN TEMP:  42; 6HR MAX TEMP:  53;

WAYCROSS       SUNNY     57  24  27 NW9       30.29F
JESUP          FAIR      55  27  33 NW10      30.28F
BAXLEY         FAIR      54  16  22 NW13G18   30.29F
BRUNSWICK      SUNNY     55  28  35 N9        30.27F
SAINT SIMONS   SUNNY     53  21  28 NW6       30.27F
6HR MIN TEMP:  46; 6HR MAX TEMP:  54;


$$

SCZ027-028-034-036>038-045-046-048>050-GAZ119-141-131900-
...LAKE AND SUPPLEMENTAL COASTAL OBSERVATIONS...

STATION/POSITION TIME  TEMP    WIND        PRES    WAVE   SWELL
                       AIR SEA DIR/SP/G            HT/PER HT/PER/DIR
                 (UTC) (F)     (DEG/KT/KT) (MB)    (FT/S) (FT/S/D)
WINYAH BAY       1700   42     340/  5     1024.0
LAKE MURRAY      1700   41     280/  7/ 12 1025.7S
ACE BASIN NERRS  1700   47     360/  3     1025.0S
FORT PULASKI     1800   47 51  340/  9/ 12 1025.2F
SAPELO ISLAND    1800   53     360/  6     1025.0S

$$

ANZ835-935-AMZ111-154-330-350-352-354-370-450-454-472-131900-
...C-MAN AND BUOY OBSERVATIONS...

STATION/POSITION TIME  TEMP    WIND        PRES    WAVE   SWELL
                       AIR SEA DIR/SP/G            HT/PER HT/PER/DIR
                 (UTC) (F)     (DEG/KT/KT) (MB)    (FT/S) (FT/S/D)
BUOY 41004       1750   45 67  350/ 12/ 17 1024.1F   4/ 6   2/ 7
BUOY 41008       1750   45 53  350/ 12/ 16 1025.5F   3/ 4   2/ 90/ 6
FOLLY BEACH CMAN 1800   47     340/  6/ 13 1025.0F
CAPERS NEARSHORE 1708   43      10/ 10/ 14 1024.8F
FRIPP NEARSHORE  1700   45     350/  8/ 12 1024.4F


STATION/POSITION TIME  TEMP    WIND        PRES    WAVE   SWELL
                       AIR SEA DIR/SP/G            HT/PER HT/PER/DIR
                 (UTC) (F)     (DEG/KT/KT) (MB)    (FT/S) (FT/S/D)
5E ST. MARYS GA  1721      56                N/A     3/ 5
FRYING PAN BUOY  1800   40 61  330/ 14/ 19 1024.3F
BUOY 41025       1750   34 71  350/ 17/ 25 1023.2S   5/ 8   2/240/11
CAPE LOOKOUT NC  NOT AVBL
BUOY 41002       1750   55 68  340/ 21/ 25   N/A     9/10   5/260/10
BUOY 41010       1720   65 72              1022.0F
ST AUGUSTINE FL  1800   52 58   20/ 14/ 15 1025.2F


$$



USA.gov is the U.S. government's official web portal to all federal, state and local government web resources and services.